Location: Roland
(31.1349°N, 85.4372°W)
Time: 18:33:00
(UTC+00:00)

SR - Pass Details

Date: 15 April 2021
Orbit: 573 x 882 km, 66.7° (Epoch: 12 May)

Event Time Altitude Azimuth Distance (km) Brightness Sun altitude
Rises 13:51:38 0° 210° (SSW) 3,191 ? 32.8°
Reaches altitude 10° 13:53:56 10° 213° (SSW) 2,315 ? 33.3°
Maximum altitude 13:59:16 69° 296° (WNW) 875 ? 34.5°
Drops below altitude 10° 14:05:03 10° 20° (NNE) 2,495 ? 35.7°
Sets 14:07:37 0° 23° (NNE) 3,458 ? 36.2°
